Vitoria, Spain

2:41 PM CET on December 16, 2017 (GMT +0100)
Foronda

Weather History for LEVT - February, 2013

Change the Weather History Date:

Thursday, February 21, 2013

  Actual Average Record
Temperature  
Mean Temperature 48 °F -  
Max Temperature 55 °F 56 °F 64 °F (2008)
Min Temperature 41 °F 35 °F 21 °F (2005)
Degree Days  
Heating Degree Days 17    
Moisture  
Dew Point 42 °F    
Average Humidity 81    
Maximum Humidity 100    
Minimum Humidity 62    
Precipitation  
Precipitation 0.00 in - - ()
Sea Level Pressure  
Sea Level Pressure 29.78 in    
Wind  
Wind Speed 6 mph ()    
Max Wind Speed 16 mph    
Max Gust Speed -    
Visibility 6.0 miles    
Events      
Averages and records for this station are not official NWS values.
T = Trace of Precipitation, MM = Missing Value Source: Averaged Metar Reports

Daily Weather History Graph

Daily Weather History Graph

Search for Another Location

Airport or City:

Trip Planner

Search our weather history database for the weather conditions in past years. The results will help you decide how hot, cold, wet, or windy it might be!

Date:

Astronomy

Feb. 21, 2013 Rise Set
Actual Time 7:59 AM CET 6:50 PM CET
Civil Twilight 7:30 AM CET 7:19 PM CET
Nautical Twilight 6:57 AM CET 7:51 PM CET
Astronomical Twilight 6:25 AM CET 8:24 PM CET
Moon 2:48 PM CET (2/21) 4:57 AM CET (2/21)
Length of Visible Light 11h 48m
Length of Day
10h 50m
Waxing Gibbous, 82% of the Moon is Illuminated
Feb 21
Waxing Gibbous
Feb 25
Full
Mar 4
Last Quarter
Mar 11
New
Mar 19
First Quarter

Hourly Weather History & Observations

Time (CET) Temp. Windchill Dew Point Humidity Pressure Visibility Wind Dir Wind Speed Gust Speed Precip Events Conditions
12:00 AM 46.4 °F - 44.6 °F 93% 29.86 in 5.6 mi Calm Calm - N/A   Scattered Clouds
12:30 AM 46.4 °F - 44.6 °F 93% 29.86 in 5.6 mi Calm Calm - N/A   Mostly Cloudy
1:00 AM 46.4 °F - 44.6 °F 93% 29.86 in 5.6 mi NE 2.3 mph - N/A   Mostly Cloudy
1:30 AM 46.4 °F - 44.6 °F 93% 29.86 in 5.6 mi Calm Calm - N/A   Mostly Cloudy
2:00 AM 44.6 °F - 44.6 °F 100% 29.86 in 5.6 mi NE 1.2 mph - N/A   Scattered Clouds
2:30 AM 44.6 °F - 44.6 °F 100% 29.86 in 5.6 mi Calm Calm - N/A   Scattered Clouds
3:00 AM 42.8 °F - 42.8 °F 100% 29.86 in 5.6 mi Variable 2.3 mph - N/A   Partly Cloudy
4:00 AM 42.8 °F 37.5 °F 39.2 °F 87% 29.86 in 5.6 mi SW 9.2 mph - N/A   Partly Cloudy
5:00 AM 42.8 °F 37.0 °F 37.4 °F 81% 29.83 in - SW 10.4 mph - N/A   Clear
5:30 AM 42.8 °F 38.6 °F 37.4 °F 81% 29.83 in - SW 6.9 mph - N/A   Clear
6:00 AM 44.6 °F 39.2 °F 39.2 °F 81% 29.83 in - SSW 10.4 mph - N/A   Clear
6:30 AM 42.8 °F 36.6 °F 39.2 °F 87% 29.83 in - SW 11.5 mph - N/A   Clear
7:00 AM 42.8 °F 37.5 °F 39.2 °F 87% 29.83 in - SSW 9.2 mph - N/A   Clear
7:30 AM 41.0 °F 36.4 °F 39.2 °F 93% 29.83 in - SSW 6.9 mph - N/A   Clear
8:00 AM 41.0 °F 35.8 °F 37.4 °F 87% 29.83 in 6.2 mi SSW 8.1 mph - N/A   Partly Cloudy
8:30 AM 41.0 °F 35.2 °F 39.2 °F 93% 29.83 in 5.6 mi SW 9.2 mph - N/A   Partly Cloudy
9:00 AM 44.6 °F 40.7 °F 41.0 °F 87% 29.83 in 5.6 mi SW 6.9 mph - N/A   Scattered Clouds
9:30 AM 44.6 °F 40.7 °F 41.0 °F 87% 29.83 in 5.6 mi SSW 6.9 mph - N/A   Scattered Clouds
10:00 AM 46.4 °F 41.9 °F 41.0 °F 81% 29.83 in 6.2 mi SSW 9.2 mph - N/A   Scattered Clouds
10:30 AM 48.2 °F - 41.0 °F 76% 29.83 in 6.2 mi SW 10.4 mph - N/A   Scattered Clouds
11:00 AM 50.0 °F - 41.0 °F 71% 29.83 in 6.2 mi WSW 10.4 mph - N/A   Mostly Cloudy
11:30 AM 50.0 °F - 41.0 °F 71% 29.83 in 6.2 mi SW 11.5 mph - N/A   Mostly Cloudy
12:00 PM 50.0 °F - 41.0 °F 71% 29.83 in 6.2 mi SW 10.4 mph - N/A   Mostly Cloudy
12:30 PM 51.8 °F - 41.0 °F 67% 29.83 in 6.2 mi SW 12.7 mph - N/A   Scattered Clouds
1:00 PM 53.6 °F - 42.8 °F 67% 29.80 in 6.2 mi SW 10.4 mph - N/A   Partly Cloudy
1:30 PM 53.6 °F - 41.0 °F 62% 29.80 in 6.2 mi SW 6.9 mph - N/A   Scattered Clouds
2:00 PM 53.6 °F - 41.0 °F 62% 29.77 in 6.2 mi SW 10.4 mph - N/A   Scattered Clouds
2:30 PM 55.4 °F - 42.8 °F 63% 29.77 in 6.2 mi SSW 11.5 mph - N/A   Scattered Clouds
3:00 PM 53.6 °F - 41.0 °F 62% 29.74 in 6.2 mi SW 13.8 mph - N/A   Scattered Clouds
3:30 PM 53.6 °F - 41.0 °F 62% 29.74 in 6.2 mi SW 11.5 mph - N/A   Scattered Clouds
4:00 PM 53.6 °F - 41.0 °F 62% 29.74 in 6.2 mi SSW 16.1 mph - N/A   Scattered Clouds
4:30 PM 51.8 °F - 41.0 °F 67% 29.74 in 6.2 mi SSW 12.7 mph - N/A   Scattered Clouds
5:00 PM 50.0 °F - 41.0 °F 71% 29.74 in 6.2 mi SW 13.8 mph - N/A   Partly Cloudy
5:30 PM 50.0 °F - 41.0 °F 71% 29.74 in 6.2 mi SSW 10.4 mph - N/A   Scattered Clouds
6:00 PM 50.0 °F - 41.0 °F 71% 29.71 in 6.2 mi SSW 9.2 mph - N/A   Scattered Clouds
6:30 PM 48.2 °F - 42.8 °F 82% 29.71 in 6.2 mi SSW 9.2 mph - N/A   Scattered Clouds
7:00 PM 48.2 °F - 42.8 °F 82% 29.71 in 6.2 mi SSW 9.2 mph - N/A   Scattered Clouds
7:30 PM 48.2 °F - 42.8 °F 82% 29.71 in 6.2 mi SW 5.8 mph - N/A   Scattered Clouds
8:00 PM 48.2 °F - 42.8 °F 82% 29.71 in 6.2 mi SW 5.8 mph - N/A   Scattered Clouds
8:30 PM 46.4 °F 43.5 °F 42.8 °F 87% 29.71 in 6.2 mi SW 5.8 mph - N/A   Mostly Cloudy
9:00 PM 46.4 °F 42.9 °F 44.6 °F 93% 29.68 in 6.2 mi SW 6.9 mph - N/A   Scattered Clouds
9:30 PM 46.4 °F - 44.6 °F 93% 29.68 in 6.2 mi Variable 1.2 mph - N/A   Scattered Clouds
10:00 PM 46.4 °F - 42.8 °F 87% 29.68 in 6.2 mi Variable 1.2 mph - N/A   Scattered Clouds
10:30 PM 46.4 °F - 44.6 °F 93% 29.68 in 6.2 mi Variable 1.2 mph - N/A   Scattered Clouds
11:00 PM 46.4 °F - 42.8 °F 87% 29.68 in 6.2 mi Calm Calm - N/A   Scattered Clouds
11:30 PM 46.4 °F 45.2 °F 42.8 °F 87% 29.68 in 6.2 mi West 3.5 mph - N/A   Scattered Clouds